星链-36193(STARLINK-36193)

导读

STARLINK-36193是美国SpaceX公司于2025年12月14日发射的星链(Starlink)卫星,属于星链低轨互联网星座的组成部分。它运行于近地轨道,依托星链星座的星间激光链路技术,能够为全球提供高速低延迟宽带互联网服务,尤其助力偏远地区网络覆盖,同时可作为地面通信中断时的应急备份,在灾害救援、偏远区域互联等场景发挥支撑作用。

基本信息
目录编号:
67099
目录名称:
STARLINK-36193
国际标识:
2025-298AA
轨道中心:
EARTH
卫星名称:
星链-36193
卫星全名:
星链-36193(STARLINK-36193)
卫星状态:
在轨 (已飞行265 天)
发射日期:
2025-12-14 UTC
国别 :
美国 (US)
星等 :
--
轨道信息
数据来源 国际轨道数据 AOE轨道数据
星历时间 2026-09-05T03:52:07+0800
9小时前
查看轨道信息
2026-09-03T18:00:00+0800
1天前
查看轨道信息
半长轴 6950.124km 6950.171km
偏心率 0.0003938 0.0003966
轨道倾角 70.001° 70.000°
近地点辐角 268.624° 271.940°
升交点赤经 282.675° 286.232°
平近点角 91.447° 38.298°
近地点 569.25km 569.277km
远地点 574.724km 574.791km
周期 96.106分钟 96.107分钟
每日圈数 14.983523 14.983374
详细信息
固有亮度:
5
最大亮度:
2.5
卫星平台:
Starlink V1.0
覆盖范围:
全球
运营商:
太空探索技术公司
运营商所在国:
美国
制造商(研发单位):
太空探索技术公司
制造商所在国:
美国
使用方式:
暂无
卫星简介
Starlink 计划是 SpaceX 推出的全球卫星互联网项目,通过发射低轨道卫星,为全球尤其是偏远地区提供高速、低延迟的互联网服务。自 2019 年起,Starlink 已部署数千颗卫星,旨在缩小全球数字鸿沟,推动互联网普及。该项目还为军事、航空等行业提供通信支持,带来广泛经济效益。
2D轨道图
3D轨道图
轨道高度分析图
轨道倾角分析图
轨道综合分析图
查看轨道综合分析图
交会数据列表
事件ID 空间交会对象 最接近时刻(TCA) 交会距离 交会风险概率(CRP) 交会风险指数(CRI) 操作
CDM_260909-211606-708106-709921
2026-09-09T
21:16:11+0000
0.802 km
远距离
5.239463E-6 低风险 0.49
CDM_260901-062606-339506-709925
2026-09-01T
06:26:46+0000
2.187 km
极远距离
2.294995E-6 低风险 0.42
CDM_260909-203406-708106-709921
2026-09-09T
20:34:02+0000
1.947 km
极远距离
3.998392E-7 极低风险 0.27